Date,TemperatureHighF,TemperatureAvgF,TemperatureLowF,DewpointHighF,DewpointAvgF,DewpointLowF,HumidityHigh,HumidityAvg,HumidityLow,PressureMaxIn,PressureMinIn,WindSpeedMaxMPH,WindSpeedAvgMPH,GustSpeedMaxMPH,PrecipitationSumIn
2013-1-1,84,66,53,60,34,11,74,39,10,30.13,29.95,6,1,11,0.00
2013-1-2,86,69,57,59,36,12,73,39,10,29.99,29.88,6,1,11,0.00
2013-1-3,86,68,57,62,45,16,76,50,10,30.06,29.93,7,1,11,0.00
2013-1-4,74,68,64,58,52,43,71,58,35,30.16,30.02,8,2,14,0.00
2013-1-5,79,70,62,60,46,20,73,48,12,30.17,30.08,8,2,15,0.32
2013-1-6,84,71,62,71,53,20,84,60,10,30.11,29.96,8,1,12,0.14
2013-1-7,78,70,66,61,49,16,80,53,10,30.10,30.00,8,2,17,0.22
2013-1-8,82,72,66,71,53,16,84,59,10,30.13,30.01,8,1,17,0.01
2013-1-9,86,75,68,67,53,20,79,53,10,30.21,30.10,9,2,16,0.06
2013-1-10,83,73,66,67,43,13,80,43,10,30.22,30.11,8,2,16,0.01
2013-1-11,83,72,64,65,44,15,78,47,10,30.19,30.07,8,1,14,0.00
2013-1-12,84,70,61,66,42,16,81,48,10,30.11,30.01,9,1,14,0.01
2013-1-13,84,71,62,63,41,16,77,43,10,30.06,29.99,7,1,14,0.01
2013-1-14,85,70,60,66,41,15,80,44,10,30.10,30.03,8,1,12,0.00
2013-1-15,84,69,60,67,41,14,79,44,10,30.06,29.97,6,1,11,0.00
2013-1-16,87,70,57,64,40,16,79,44,10,30.03,29.91,6,1,11,0.00
2013-1-17,86,70,57,65,35,1,78,38,10,30.00,29.82,11,3,20,0.00
2013-1-18,73,59,44,49,11,-9,59,17,10,30.16,30.00,10,3,19,0.12
2013-1-19,76,68,63,53,39,14,67,42,10,30.15,30.03,8,3,16,0.08
2013-1-20,78,68,63,65,48,16,82,57,10,30.06,29.95,4,1,8,0.01
2013-1-21,84,68,62,66,49,17,80,58,10,29.98,29.88,4,1,10,0.19
2013-1-22,70,63,58,53,23,3,73,30,10,30.16,29.93,8,2,17,0.01
2013-1-23,72,59,49,28,7,-3,44,14,10,30.24,30.15,7,2,13,0.00
2013-1-24,75,61,44,32,14,-2,51,20,10,30.23,30.13,6,1,12,0.00
2013-1-25,80,61,50,41,25,3,58,32,10,30.21,30.09,6,1,11,0.00
2013-1-26,80,61,46,41,23,4,58,29,10,30.19,30.07,6,1,11,0.00
2013-1-27,80,63,48,57,32,12,72,39,10,30.22,30.13,7,1,11,0.00
2013-1-28,84,72,68,53,35,14,56,30,10,30.25,30.14,8,2,13,0.01
2013-1-29,82,70,63,66,46,18,77,49,10,30.17,30.04,8,1,13,0.00
2013-1-30,87,73,62,60,34,13,75,35,10,30.04,29.84,12,2,22,0.01
2013-1-31,71,62,49,58,25,-5,68,33,10,30.11,29.83,8,2,15,0.06
2013-2-1,69,54,42,10,-1,-9,20,10,10,30.22,30.11,8,2,18,0.00
2013-2-2,76,57,40,30,11,-10,46,18,10,30.19,30.03,6,1,11,0.00
2013-2-3,73,57,47,37,18,-2,55,28,10,30.11,29.98,5,1,13,0.00
2013-2-4,76,58,40,28,9,-10,44,17,10,30.04,29.93,5,1,10,0.00
2013-2-5,79,59,42,31,10,-9,40,16,10,30.01,29.92,3,1,7,0.00
2013-2-6,82,68,54,59,27,10,70,30,10,30.02,29.93,3,1,7,0.00
2013-2-7,84,71,58,57,29,14,67,26,10,29.99,29.83,6,2,13,0.00
2013-2-8,83,69,60,52,32,12,60,31,10,29.97,29.79,4,2,9,0.00
2013-2-9,77,67,57,53,28,9,70,33,10,30.10,29.96,6,2,11,0.01
2013-2-10,81,71,66,19,12,8,14,10,10,30.19,30.08,7,2,11,0.00
2013-2-11,85,74,60,50,21,11,58,15,10,30.14,30.00,9,3,17,0.00
2013-2-12,89,72,58,60,35,16,69,32,10,30.03,29.85,8,2,14,0.00
2013-2-13,90,76,66,64,37,9,73,34,10,29.90,29.75,11,3,20,0.00
2013-2-14,75,65,60,51,39,7,70,43,10,29.95,29.83,5,1,12,0.67
2013-2-15,67,61,56,54,48,39,75,64,37,29.96,29.85,5,1,11,0.06
2013-2-16,72,61,50,51,24,-5,72,34,10,29.99,29.79,12,3,23,0.01
2013-2-17,58,46,35,2,-8,-16,10,10,10,30.25,29.99,8,2,21,0.00
2013-2-18,74,55,35,14,0,-16,18,10,10,30.25,30.14,9,2,17,0.00
2013-2-19,83,66,49,49,22,6,58,23,10,30.14,29.97,9,1,17,0.01
2013-2-20,80,66,54,54,31,11,67,35,10,30.04,29.93,5,1,11,0.00
2013-2-21,85,70,57,64,38,14,74,40,10,30.02,29.92,6,1,11,0.00
2013-2-22,90,73,61,66,41,17,74,40,10,30.01,29.91,8,2,15,0.00
2013-2-23,90,76,65,65,42,15,75,41,10,29.96,29.79,10,2,17,0.05
2013-2-24,90,74,68,60,44,16,70,44,10,29.90,29.79,8,2,15,0.01
2013-2-25,91,76,68,68,43,16,77,41,10,29.83,29.69,6,2,14,0.00
2013-2-26,88,78,69,60,38,16,64,32,10,29.78,29.66,13,3,24,0.01
2013-2-27,83,68,58,52,31,9,64,32,10,29.88,29.77,6,1,12,0.00
2013-2-28,78,64,53,44,12,1,53,15,10,29.92,29.78,7,2,12,0.00
2013-3-1,69,59,55,10,3,0,10,10,10,29.89,29.81,7,2,11,0.00
2013-3-2,60,53,39,3,-2,-13,10,10,10,29.94,29.86,9,3,17,0.00
2013-3-3,60,47,38,11,-5,-14,28,11,10,30.07,29.87,14,3,24,0.00
2013-3-4,66,48,32,8,-6,-18,15,10,10,30.15,30.04,9,2,16,0.00
2013-3-5,83,59,38,35,12,-3,49,18,10,30.09,29.95,8,1,13,0.00
2013-3-6,72,62,49,44,18,-5,51,23,10,30.03,29.85,13,4,23,0.01
2013-3-7,69,54,41,16,1,-11,30,12,10,30.11,29.99,8,2,14,0.00
2013-3-8,74,57,43,36,13,-4,55,22,10,30.14,30.03,8,1,13,0.00
2013-3-9,77,61,46,40,15,1,53,20,10,30.13,30.03,7,1,11,0.00
2013-3-10,81,67,52,40,15,1,45,15,10,30.09,30.00,8,2,15,0.00
2013-3-11,82,70,57,41,16,5,47,14,10,30.04,29.85,8,2,16,0.00
2013-3-12,80,71,64,42,22,8,41,17,10,29.91,29.79,10,3,18,0.01
2013-3-13,74,61,49,38,18,-3,50,23,10,30.05,29.90,11,3,20,0.02
2013-3-14,66,56,46,23,3,-7,33,12,10,30.14,30.03,12,3,21,0.00
2013-3-15,75,56,42,16,6,-9,33,14,10,30.19,30.07,8,2,16,0.00
2013-3-16,82,64,42,41,17,3,54,20,10,30.11,29.98,4,2,11,0.00
2013-3-17,82,65,47,44,18,1,54,20,10,30.07,29.93,5,1,10,0.00
2013-3-18,87,70,62,46,32,7,48,29,10,29.98,29.82,11,2,17,0.02
2013-3-19,91,72,63,57,35,10,65,34,10,29.92,29.79,7,1,11,0.00
2013-3-20,88,71,60,63,33,9,69,34,10,29.88,29.69,11,2,17,0.00
2013-3-21,78,62,47,42,16,-6,47,20,10,29.86,29.74,10,2,18,0.00
2013-3-22,83,63,42,38,16,4,52,20,10,29.93,29.82,8,1,14,0.02
2013-3-23,93,78,66,68,38,12,73,34,10,29.89,29.67,11,2,24,0.60
2013-3-24,92,76,67,58,38,13,59,32,10,29.78,29.54,15,4,30,0.78
2013-3-25,80,70,56,60,28,0,65,28,10,29.91,29.63,13,4,18,0.01
2013-3-26,66,56,46,8,0,-7,10,10,10,30.13,29.91,14,4,25,0.00
2013-3-27,70,53,42,11,-2,-10,12,10,10,30.19,30.09,9,3,14,0.00
2013-3-28,74,56,41,14,6,-7,29,14,10,30.20,30.10,8,2,14,0.00
2013-3-29,78,60,43,30,11,-7,44,17,10,30.23,30.12,6,1,11,0.00
2013-3-30,83,64,47,47,17,0,56,20,10,30.18,30.06,7,2,15,0.00
2013-3-31,74,55,51,47,20,0,54,28,10,30.10,30.04,2,0,5,0.01
2013-4-3,88,76,65,51,30,15,50,23,10,29.99,29.89,5,2,10,0.00
2013-4-4,79,72,67,54,46,20,58,41,11,29.95,29.81,9,2,14,0.11
2013-4-5,82,69,64,56,36,15,63,34,10,29.85,29.69,8,3,14,0.35
2013-4-6,84,68,56,35,21,7,46,20,10,30.01,29.85,7,3,15,0.01
2013-4-7,84,72,60,39,18,5,41,15,10,30.07,29.95,6,2,11,0.00
2013-4-8,86,70,56,56,29,11,61,28,10,30.06,29.97,5,1,12,0.00
2013-4-9,84,72,64,53,23,10,59,20,10,30.08,29.98,8,2,14,0.00
2013-4-10,88,76,64,60,35,17,64,29,10,30.04,29.91,8,2,16,0.00
2013-4-11,90,79,72,53,36,17,49,26,10,29.93,29.78,11,4,24,0.00
2013-4-12,99,82,74,57,34,16,53,22,10,29.83,29.73,10,3,21,0.00
2013-4-13,92,77,71,59,39,15,57,32,10,29.89,29.79,6,1,11,0.12
2013-4-14,94,79,70,68,44,18,70,36,10,29.89,29.76,10,2,20,0.40
2013-4-15,94,77,64,67,40,18,72,34,10,29.98,29.84,11,1,21,0.77
2013-4-16,88,78,69,67,35,15,70,29,10,30.05,29.94,9,2,16,0.01
2013-4-17,89,76,64,60,31,13,63,24,10,30.04,29.94,7,1,12,0.00
2013-4-18,93,77,64,65,36,17,67,29,10,29.98,29.88,8,2,15,0.01
2013-4-19,95,80,73,55,37,18,49,26,10,29.95,29.84,13,3,21,0.64
2013-4-20,87,74,68,67,39,12,69,35,10,30.01,29.87,12,2,21,0.02
2013-4-21,92,75,67,52,40,17,52,34,10,30.02,29.89,9,2,17,0.02
2013-4-22,84,73,69,62,41,14,65,37,10,29.97,29.87,8,2,15,0.17
2013-4-23,86,74,64,64,31,10,68,28,10,30.01,29.88,10,2,17,0.01
2013-4-24,90,75,61,57,22,7,59,16,10,30.06,29.96,8,1,12,0.00
2013-4-25,90,76,62,50,26,8,55,20,10,30.11,29.99,7,1,11,0.00
2013-4-26,90,76,63,49,26,8,51,19,10,30.14,30.05,6,1,13,0.00
2013-4-27,90,77,65,55,23,12,54,15,10,30.13,30.02,8,2,15,0.00
2013-4-28,90,79,71,26,18,12,10,10,10,30.05,29.92,11,2,19,0.00
2013-4-29,92,78,66,46,26,13,43,17,10,29.95,29.83,9,2,18,0.01
2013-4-30,88,74,68,61,38,16,63,33,10,29.91,29.84,7,1,15,0.06
2013-5-1,86,73,66,70,43,16,72,43,10,29.92,29.84,9,1,14,0.37
2013-5-2,80,72,68,67,53,20,75,55,13,29.87,29.73,11,2,18,2.28
2013-5-3,94,78,69,57,35,15,59,28,10,29.74,29.56,10,2,20,0.86
2013-5-4,96,80,64,62,30,14,70,21,10,29.70,29.59,8,2,12,0.01
2013-5-5,87,73,61,51,25,4,53,21,10,29.83,29.65,11,3,21,0.00
2013-5-6,87,72,56,43,17,2,49,14,10,29.91,29.81,8,2,16,0.00
2013-5-7,89,71,52,42,16,1,47,14,10,29.96,29.86,9,2,19,0.00
2013-5-8,94,73,56,51,22,4,58,18,10,30.03,29.93,9,1,14,0.00
2013-5-9,92,76,60,48,23,7,44,16,10,30.06,29.98,7,2,12,0.00
2013-5-10,96,80,67,66,35,14,68,27,10,30.05,29.92,8,2,17,0.15
2013-5-11,103,80,69,65,42,14,63,35,10,29.98,29.84,16,2,35,1.64
2013-5-12,97,79,68,65,42,19,71,36,10,29.95,29.85,8,1,14,0.05
2013-5-13,86,74,67,60,32,10,66,30,10,30.02,29.89,8,2,14,0.01
2013-5-14,86,74,59,23,14,3,20,10,10,30.10,30.00,8,1,14,0.00
2013-5-15,89,66,59,49,21,4,52,21,10,30.11,30.01,5,0,9,0.00
2013-5-16,92,78,59,54,25,8,58,18,10,30.05,29.95,8,2,14,0.00
2013-5-17,91,78,64,56,25,10,58,18,10,30.00,29.93,7,2,14,0.00
2013-5-18,94,80,0,64,31,14,62,21,10,30.02,29.94,8,2,14,0.00
2013-5-19,91,78,69,61,30,15,62,22,10,30.01,29.91,6,1,13,0.05
2013-5-20,92,77,69,62,37,16,58,29,10,30.00,29.89,7,1,12,0.27
2013-5-21,93,77,68,62,40,17,64,32,10,29.94,29.85,7,1,14,0.38
2013-5-22,92,78,68,72,40,17,75,35,10,29.88,29.80,8,1,12,0.01
2013-5-23,95,80,68,65,37,16,69,30,10,29.91,29.81,7,1,11,0.00
2013-5-24,99,82,68,63,36,16,62,26,10,29.99,29.85,8,1,11,0.00
2013-5-25,91,79,68,62,31,13,60,24,10,30.10,29.97,8,2,17,0.11
2013-5-26,89,77,60,45,18,5,44,12,10,30.12,30.04,6,2,13,0.00
2013-5-27,88,79,66,25,18,8,17,10,10,30.08,30.00,8,3,18,0.00
2013-5-28,91,80,73,55,26,15,52,16,10,30.05,29.98,8,3,17,0.11
2013-5-29,91,80,72,61,38,18,60,27,10,30.03,29.95,8,2,19,0.51
2013-5-30,91,82,77,43,26,17,30,14,10,30.02,29.94,11,3,23,0.02
2013-5-31,92,82,76,38,22,15,25,11,10,30.00,29.93,10,3,20,0.01
2013-6-1,95,83,76,54,33,19,44,18,10,29.97,29.88,8,2,15,0.00
2013-6-2,98,83,72,69,40,18,67,30,10,29.91,29.81,7,1,13,0.02
2013-6-3,98,82,73,68,41,18,67,30,10,29.93,29.81,8,1,14,0.02
2013-6-4,90,78,73,65,48,21,65,42,10,29.95,29.85,4,0,8,0.08
2013-6-5,91,80,73,71,48,21,71,40,10,29.93,29.81,6,1,13,0.04
2013-6-6,88,78,72,71,58,23,66,53,10,29.83,29.70,11,2,27,1.22
2013-6-7,99,86,72,65,33,18,66,19,10,29.88,29.71,10,3,17,0.00
2013-6-8,96,79,73,64,47,18,64,40,10,30.01,29.87,7,1,12,0.08
2013-6-9,96,84,71,76,42,18,76,32,10,30.02,29.94,8,2,16,0.01
2013-6-10,97,84,77,60,38,20,53,24,10,30.00,29.92,7,2,16,0.00
2013-6-11,98,83,74,73,42,19,69,30,10,29.99,29.91,7,1,11,0.00
2013-6-12,100,83,72,74,38,16,71,28,10,29.98,29.93,7,1,11,0.00
2013-6-13,106,85,70,65,36,17,66,25,10,29.95,29.81,7,1,14,0.00
2013-6-14,101,86,73,62,36,19,61,23,10,29.86,29.75,9,2,19,0.00
2013-6-15,98,84,71,65,32,17,61,19,10,29.97,29.82,8,2,17,0.00
2013-6-16,99,86,77,56,35,21,47,19,10,29.99,29.93,7,2,17,0.00
2013-6-17,103,87,74,69,38,20,65,23,10,29.99,29.89,7,2,12,0.00
2013-6-18,102,88,76,67,36,19,60,20,10,29.97,29.87,8,2,17,0.00
2013-6-19,102,86,72,48,31,16,39,16,10,29.95,29.86,9,2,18,0.00
2013-6-20,101,80,72,64,43,15,60,33,10,30.01,29.92,11,1,18,0.50
2013-6-21,97,78,68,74,47,14,73,41,10,30.04,29.94,11,0,19,0.09
2013-6-22,97,83,70,76,39,18,75,30,10,30.03,29.95,7,1,12,0.00
2013-6-23,98,84,72,70,37,19,65,24,10,30.05,29.97,7,1,17,0.00
2013-6-24,97,85,73,73,34,16,68,21,10,30.09,29.99,8,2,16,0.08
2013-6-25,96,85,73,70,36,18,66,22,10,30.06,29.95,8,2,16,0.00
2013-6-26,96,81,74,72,48,20,68,40,10,30.00,29.92,6,1,16,0.07
2013-6-27,100,84,71,74,41,18,78,32,10,29.96,29.85,7,1,11,0.00
2013-6-28,105,86,71,67,41,14,67,28,10,29.89,29.74,10,2,19,0.32
2013-7-4,97,84,73,69,40,20,70,28,10,30.07,29.99,9,2,17,0.08
2013-7-5,96,85,73,62,37,19,60,24,10,30.07,29.97,7,2,11,0.00
2013-7-6,96,85,74,59,37,19,58,24,10,30.04,29.96,8,2,15,0.01
2013-7-7,96,84,73,73,40,19,68,29,10,30.03,29.95,6,2,11,0.02
2013-7-8,96,84,74,68,38,19,69,27,10,30.06,29.99,5,1,8,0.00
2013-7-9,96,81,73,71,39,18,72,30,10,30.08,29.97,4,1,8,0.19
2013-7-10,98,84,71,69,37,18,68,27,10,30.00,29.90,5,1,11,0.00
2013-7-11,100,83,72,73,37,16,72,26,10,29.95,29.84,8,1,16,0.11
2013-7-12,102,82,70,69,39,17,72,30,10,29.87,29.78,5,1,11,0.00
2013-7-13,97,79,71,72,46,16,71,38,10,29.92,29.82,9,1,17,0.17
2013-7-14,96,77,70,72,47,17,75,44,10,30.02,29.89,8,1,16,0.28
2013-7-15,93,80,70,70,42,19,76,36,10,30.03,29.93,7,1,11,0.02
2013-7-16,92,78,73,60,41,18,62,30,10,30.07,29.98,8,1,16,0.22
2013-7-17,90,78,69,72,49,18,77,47,10,30.05,29.97,7,1,12,0.54
2013-7-18,95,79,72,72,48,17,77,44,10,30.04,29.96,8,1,11,0.22
2013-7-19,98,82,71,74,43,20,77,37,10,30.04,29.94,8,1,16,0.00
2013-7-20,95,80,74,74,44,16,75,36,10,30.02,29.94,6,1,15,0.07
2013-7-21,101,81,72,66,43,15,71,36,10,30.04,29.94,9,1,17,0.20
2013-7-22,105,84,71,71,42,17,76,32,10,30.04,29.96,7,1,14,0.00
2013-7-23,100,84,73,71,37,17,72,26,10,30.01,29.86,8,1,17,0.00
2013-7-24,97,80,73,65,46,17,65,37,10,29.92,29.80,13,2,25,0.21
2013-7-25,93,80,74,65,42,17,65,34,10,29.90,29.79,7,1,16,0.40
2013-7-26,97,82,74,66,43,19,69,32,10,29.91,29.85,8,1,14,0.18
2013-7-27,100,84,73,72,41,18,74,30,10,29.90,29.81,6,1,11,0.00
2013-7-28,102,81,71,69,44,13,69,34,10,29.98,29.84,12,1,19,1.23
2013-7-29,98,82,71,73,40,18,75,31,10,30.06,29.93,6,1,14,0.00
2013-7-30,98,84,73,72,42,20,75,32,10,30.07,29.99,5,1,11,0.00
2013-7-31,101,86,75,73,44,18,75,33,10,30.03,29.91,8,1,16,0.00
2013-8-1,101,85,73,71,39,18,73,27,10,29.98,29.85,8,1,14,0.00
2013-8-2,94,82,73,68,38,19,71,27,10,29.94,29.84,8,1,13,0.00
2013-8-3,88,79,74,61,43,18,62,34,10,30.02,29.92,8,1,17,0.06
2013-8-4,101,82,72,75,44,19,78,35,10,30.00,29.88,11,1,21,0.01
2013-8-5,78,77,75,61,56,51,59,49,39,29.93,29.88,2,0,6,0.00
2013-8-23,95,84,78,73,32,18,72,20,10,29.92,29.86,8,1,17,1.44
2013-8-24,96,83,74,77,39,20,76,28,10,29.99,29.89,8,1,18,0.00
2013-8-25,93,82,76,69,40,19,70,30,10,30.06,29.95,5,1,11,0.00
2013-8-26,96,84,74,71,40,18,72,29,10,30.03,29.91,6,1,14,0.00
2013-8-27,94,81,72,67,36,14,67,27,10,29.95,29.88,8,1,14,0.21
2013-8-28,97,81,72,60,39,16,63,30,10,29.95,29.87,6,1,16,0.01
2013-8-29,98,83,71,73,38,18,78,29,10,29.95,29.83,7,1,11,0.06
2013-8-30,101,84,74,69,37,16,70,25,10,29.89,29.80,8,1,13,0.00
2013-8-31,99,83,74,64,37,15,62,26,10,29.89,29.79,13,2,25,0.00
2013-9-1,98,80,71,64,37,18,63,26,10,29.91,29.83,6,1,13,0.02
2013-9-2,100,78,70,74,48,18,76,44,10,29.94,29.81,10,1,18,1.70
2013-9-3,98,81,71,74,43,19,80,38,10,29.92,29.84,5,1,9,0.00
2013-9-4,97,82,73,71,44,21,73,34,10,29.98,29.87,6,1,11,0.00
2013-9-5,97,84,77,70,42,20,67,30,10,29.99,29.90,6,1,10,0.00
2013-9-6,97,83,74,79,42,19,79,33,10,29.95,29.85,7,1,17,0.01
2013-9-17,78,76,74,65,61,51,68,60,39,29.95,29.91,4,1,11,1.25
2013-9-18,92,80,74,71,45,17,77,38,10,29.99,29.90,7,1,14,0.41
2013-9-19,89,79,74,68,45,16,75,40,10,29.99,29.91,9,1,15,0.15
2013-9-20,91,79,69,62,30,13,65,21,10,29.98,29.87,8,1,14,0.00
2013-9-21,94,80,69,63,36,14,66,27,10,29.90,29.74,5,1,11,0.00
2013-9-22,99,82,71,64,37,18,64,25,10,29.83,29.72,10,2,15,0.01
2013-9-23,94,77,72,71,55,19,73,52,10,29.94,29.81,6,0,13,1.09
2013-9-24,83,75,0,75,68,65,80,73,55,29.93,29.87,3,0,5,0.04
2013-10-6,91,82,74,76,73,70,89,74,56,30.08,30.02,8,2,8,0.00
2013-10-7,90,76,72,76,72,69,93,86,57,30.03,29.94,9,2,9,0.63
2013-10-8,91,78,72,75,71,68,95,80,51,30.07,29.96,8,2,8,0.00
2013-10-9,86,77,72,75,72,68,95,84,68,30.14,30.03,13,4,13,0.15
2013-10-10,85,74,66,73,68,63,94,81,62,30.18,30.11,12,2,12,0.00
2013-10-11,87,73,62,69,64,59,94,75,49,30.18,30.09,8,1,8,0.00
2013-10-12,88,75,66,70,66,63,94,76,47,30.18,30.10,8,1,8,0.00
2013-10-13,85,74,62,68,64,60,93,73,48,30.22,30.12,13,2,13,0.00
2013-10-14,86,74,66,72,67,62,94,80,58,30.17,30.07,11,2,11,0.00
2013-10-15,87,75,68,72,68,65,95,81,54,30.12,30.02,7,2,7,0.00
2013-10-16,87,76,67,74,69,64,94,81,60,30.11,30.04,8,1,8,0.00
2013-10-17,88,76,67,74,69,64,94,81,61,30.12,30.04,7,1,7,0.00
2013-10-18,89,77,67,76,70,65,94,79,61,30.14,30.05,10,1,10,0.00
2013-10-19,90,79,69,76,72,66,94,79,59,30.11,30.01,9,2,9,0.00
2013-10-20,89,79,72,79,74,69,93,83,62,30.10,30.01,6,1,6,0.09
2013-10-21,91,80,70,78,74,68,95,82,61,30.14,30.05,10,2,10,0.00
2013-10-22,93,83,75,77,74,70,93,75,50,30.10,29.95,11,2,11,0.00
2013-10-23,83,76,68,73,69,64,92,79,60,30.12,29.94,10,2,10,0.00
2013-10-24,78,70,62,65,59,54,87,70,59,30.27,30.11,10,3,10,0.00
2013-10-25,80,70,63,66,61,57,88,74,57,30.33,30.25,15,3,15,0.00
2013-10-26,82,68,58,66,58,54,92,73,48,30.32,30.22,8,1,8,0.00
2013-10-27,80,67,56,64,58,53,94,77,52,30.25,30.19,9,2,9,0.00
2013-10-28,86,66,61,68,61,58,92,85,53,30.30,30.21,6,1,6,0.00
2013-10-29,86,74,63,70,65,60,92,76,55,30.34,30.25,12,2,12,0.00
2013-10-30,85,76,66,70,66,63,91,72,57,30.36,30.25,9,2,9,0.00
2013-10-31,86,77,67,71,68,62,92,73,60,30.27,30.15,9,1,9,0.04
2013-11-1,90,79,71,75,71,67,92,77,53,30.16,30.01,11,1,11,0.00
2013-11-2,88,75,67,73,67,61,94,79,53,30.09,29.96,8,1,8,0.00
2013-11-3,78,71,64,62,56,53,83,62,42,30.21,30.05,14,3,14,0.00
2013-11-4,82,75,64,66,60,52,83,61,49,30.27,30.18,13,3,13,0.00
2013-11-5,85,77,72,72,68,64,90,75,61,30.27,30.20,11,1,11,0.43
2013-11-6,86,77,71,70,67,64,89,72,55,30.23,30.16,7,1,7,0.00
2013-11-7,84,74,67,72,68,64,94,82,63,30.17,30.08,6,0,6,0.00
2013-11-8,80,73,66,71,67,64,93,81,70,30.22,30.10,16,2,16,0.00
2013-11-9,82,76,71,70,67,65,84,75,64,30.30,30.20,8,0,8,0.00
2013-11-10,83,73,66,70,66,63,92,81,62,30.30,30.21,0,0,0,0.00
2013-11-11,83,74,66,71,67,64,94,80,62,30.29,30.21,0,0,0,0.00
2013-11-12,82,73,65,70,67,62,94,80,66,30.24,30.13,8,1,8,0.00
2013-11-13,74,69,65,63,58,48,86,67,54,30.41,30.16,24,7,24,0.00
2013-11-14,77,70,66,60,56,50,70,60,50,30.43,30.31,11,3,11,0.00
2013-11-15,82,73,68,69,64,58,88,72,57,30.32,30.21,8,2,8,0.04
2013-11-16,84,75,69,70,67,65,91,77,58,30.26,30.16,6,0,6,0.22
2013-11-17,85,79,71,72,70,67,90,76,63,30.23,30.15,10,1,10,0.00
2013-11-18,89,76,68,74,70,65,94,81,54,30.16,30.06,7,1,7,0.00
2013-11-19,79,73,69,70,68,65,94,83,69,30.09,30.01,10,2,10,0.00
2013-11-20,78,74,69,72,70,66,94,89,80,30.23,30.07,8,1,8,5.15
2013-11-21,80,74,72,74,70,68,93,87,78,30.31,30.21,0,0,0,5.31
2013-11-22,82,76,70,71,67,63,86,75,63,30.32,30.23,0,0,0,0.00
2013-11-23,83,71,64,69,64,61,93,79,60,30.25,30.14,0,0,0,0.00
2013-11-24,75,68,63,66,62,57,95,81,69,30.25,29.96,0,0,0,0.00
2013-11-25,76,70,68,67,60,56,88,73,59,30.00,29.88,0,0,0,0.00
2013-11-26,84,76,71,74,70,63,89,80,64,29.89,29.78,0,0,0,0.00
2013-11-27,73,72,72,70,68,65,90,87,81,29.82,29.73,0,0,0,0.00
2013-11-28,71,61,42,58,53,37,85,74,59,30.27,30.17,0,0,0,0.00
2013-11-29,74,68,63,61,59,56,89,73,57,30.28,30.21,0,0,0,0.00
2013-11-30,79,69,60,68,62,58,95,81,61,30.23,30.13,0,0,0,0.00
2013-12-1,70,67,65,68,65,63,95,93,88,30.13,29.98,0,0,0,6.36
2013-12-2,72,65,58,64,61,55,95,85,72,29.90,29.80,0,0,0,0.00
2013-12-3,78,67,62,66,61,59,93,82,60,29.99,29.88,0,0,0,0.00
2013-12-4,84,69,59,69,63,56,95,82,53,30.08,29.97,0,0,0,0.00
2013-12-5,83,71,61,71,65,59,95,82,63,30.16,30.07,0,0,0,0.00
2013-12-22,75,73,70,69,67,65,85,83,81,30.91,30.89,0,0,0,0.00
2013-12-23,87,78,72,74,70,65,83,75,64,30.90,30.84,0,0,0,0.00
2013-12-24,76,68,63,68,61,51,91,77,56,30.95,29.87,0,0,0,0.00
2013-12-25,76,69,60,60,57,53,82,66,52,29.93,29.86,0,0,0,0.00
2013-12-26,79,69,61,69,64,55,89,82,67,29.92,29.81,0,0,0,0.00
2013-12-27,80,72,66,70,66,62,91,82,66,29.94,29.85,0,0,0,0.00
2013-12-28,79,69,66,70,65,62,91,88,74,29.91,29.86,8,0,8,0.00